Location: Cerbedi�res
(48.2182°N, 1.4849°W)
Time: 00:10:29
(UTC+00:00)

Cosmos 2366 rocket - Pass Details

Date: 03 March 2021
Orbit: 954 x 998 km, 82.9° (Epoch: 20 April)

Event Time Altitude Azimuth Distance (km) Brightness Sun altitude
Rises 20:05:51 0° 188° (S) 3,681 6.9 -22.7°
Reaches altitude 10° 20:08:21 10° 189° (S) 2,742 6.3 -23.1°
Maximum altitude 20:14:40 87° 279° (W) 1,004 4.0 -24.1°
Drops below altitude 10° 20:21:05 10° 9° (N) 2,778 6.5 -25.1°
Sets 20:23:37 0° 10° (N) 3,732 7.2 -25.5°
